Time,TemperatureF,DewpointF,PressureIn,WindDirection,WindDirectionDegrees,WindSpeedMPH,WindSpeedGustMPH,Humidity,HourlyPrecipIn,Conditions,Clouds,dailyrainin,SoftwareType,DateUTC
2013-07-06 00:09:00,57.4,51.6,29.79,NW,308,0.0,3.0,81,0.00,,,-99.99,Weather View 32 v60,2013-07-06 07:09:00,
2013-07-06 00:19:00,57.4,51.6,29.79,NW,324,0.0,0.0,81,0.00,,,-99.99,Weather View 32 v60,2013-07-06 07:19:00,
2013-07-06 00:29:00,57.6,51.8,29.79,NW,325,0.0,0.0,81,0.00,,,-99.99,Weather View 32 v60,2013-07-06 07:29:00,
2013-07-06 00:39:00,57.4,51.6,29.79,West,268,0.0,0.0,81,0.00,,,-99.99,Weather View 32 v60,2013-07-06 07:39:00,
2013-07-06 00:49:00,57.4,51.6,29.79,WNW,293,0.0,0.0,81,0.00,,,-99.99,Weather View 32 v60,2013-07-06 07:49:00,
2013-07-06 00:59:00,57.2,51.4,29.79,West,279,0.0,0.0,81,0.00,,,-99.99,Weather View 32 v60,2013-07-06 07:59:00,
2013-07-06 01:09:00,57.2,51.7,29.79,North,351,0.0,0.0,82,0.00,,,-99.99,Weather View 32 v60,2013-07-06 08:09:00,
2013-07-06 01:19:00,57.2,51.7,29.79,NNW,330,0.0,0.0,82,0.00,,,-99.99,Weather View 32 v60,2013-07-06 08:19:00,
2013-07-06 01:30:00,57.0,51.6,29.76,North,351,0.0,0.0,82,0.00,,,-99.99,Weather View 32 v60,2013-07-06 08:30:00,
2013-07-06 01:39:00,56.8,51.4,29.79,North,351,0.0,0.0,82,0.00,,,-99.99,Weather View 32 v60,2013-07-06 08:39:00,
2013-07-06 01:49:00,56.8,51.4,29.79,WNW,292,0.0,0.0,82,0.00,,,-99.99,Weather View 32 v60,2013-07-06 08:49:00,
2013-07-06 01:59:00,56.8,51.7,29.79,WNW,299,0.0,0.0,83,0.00,,,-99.99,Weather View 32 v60,2013-07-06 08:59:00,
2013-07-06 02:10:00,56.7,51.5,29.79,WNW,299,0.0,0.0,83,0.00,,,-99.99,Weather View 32 v60,2013-07-06 09:10:00,
2013-07-06 02:19:00,56.7,51.5,29.79,NNW,337,0.0,0.0,83,0.00,,,-99.99,Weather View 32 v60,2013-07-06 09:19:00,
2013-07-06 02:29:00,56.7,51.5,29.79,WSW,246,0.0,0.0,83,0.00,,,-99.99,Weather View 32 v60,2013-07-06 09:29:00,
2013-07-06 02:39:00,56.7,51.9,29.79,West,279,0.0,0.0,84,0.00,,,-99.99,Weather View 32 v60,2013-07-06 09:39:00,
2013-07-06 02:49:00,56.7,51.9,29.79,WSW,246,0.0,0.0,84,0.00,,,-99.99,Weather View 32 v60,2013-07-06 09:49:00,
2013-07-06 02:59:00,56.5,51.7,29.79,WSW,246,0.0,0.0,84,0.00,,,-99.99,Weather View 32 v60,2013-07-06 09:59:00,
2013-07-06 03:09:00,56.7,52.2,29.79,WSW,246,0.0,0.0,85,0.00,,,-99.99,Weather View 32 v60,2013-07-06 10:09:00,
2013-07-06 03:19:00,56.3,51.5,29.79,WSW,246,0.0,0.0,84,0.00,,,-99.99,Weather View 32 v60,2013-07-06 10:19:00,
2013-07-06 03:29:00,56.1,51.3,29.79,WSW,246,0.0,0.0,84,0.00,,,-99.99,Weather View 32 v60,2013-07-06 10:29:00,
2013-07-06 03:40:00,55.8,51.3,29.79,NW,310,0.0,0.0,85,0.00,,,-99.99,Weather View 32 v60,2013-07-06 10:40:00,
2013-07-06 03:49:00,55.9,51.5,29.79,NNW,331,0.0,0.0,85,0.00,,,-99.99,Weather View 32 v60,2013-07-06 10:49:00,
2013-07-06 03:59:00,56.3,52.2,29.79,NW,323,0.0,0.0,86,0.00,,,-99.99,Weather View 32 v60,2013-07-06 10:59:00,
2013-07-06 04:09:00,56.3,52.2,29.79,NNW,344,0.0,0.0,86,0.00,,,-99.99,Weather View 32 v60,2013-07-06 11:09:00,
2013-07-06 04:19:00,56.1,51.7,29.79,NNW,344,0.0,0.0,85,0.00,,,-99.99,Weather View 32 v60,2013-07-06 11:19:00,
2013-07-06 04:29:00,55.8,51.3,29.79,NNW,344,0.0,0.0,85,0.00,,,-99.99,Weather View 32 v60,2013-07-06 11:29:00,
2013-07-06 04:39:00,55.6,51.1,29.79,NNW,344,0.0,0.0,85,0.00,,,-99.99,Weather View 32 v60,2013-07-06 11:39:00,
2013-07-06 04:49:00,55.4,51.0,29.79,NNW,344,0.0,0.0,85,0.00,,,-99.99,Weather View 32 v60,2013-07-06 11:49:00,
2013-07-06 04:59:00,55.4,51.3,29.79,NNW,344,0.0,0.0,86,0.00,,,-99.99,Weather View 32 v60,2013-07-06 11:59:00,
2013-07-06 05:10:00,55.4,51.3,29.79,NNW,344,0.0,0.0,86,0.00,,,-99.99,Weather View 32 v60,2013-07-06 12:10:00,
2013-07-06 05:19:00,55.4,51.6,29.79,NW,310,0.0,0.0,87,0.00,,,-99.99,Weather View 32 v60,2013-07-06 12:19:00,
2013-07-06 05:29:00,55.2,51.4,29.79,NW,310,0.0,0.0,87,0.00,,,-99.99,Weather View 32 v60,2013-07-06 12:29:00,
2013-07-06 05:39:00,55.0,50.9,29.79,NW,310,0.0,0.0,86,0.00,,,-99.99,Weather View 32 v60,2013-07-06 12:39:00,
2013-07-06 05:49:00,55.0,50.9,29.79,NW,310,0.0,0.0,86,0.00,,,-99.99,Weather View 32 v60,2013-07-06 12:49:00,
2013-07-06 05:59:00,55.0,51.2,29.79,North,351,0.0,0.0,87,0.00,,,-99.99,Weather View 32 v60,2013-07-06 12:59:00,
2013-07-06 06:05:00,55.0,51.2,29.79,North,351,0.0,0.0,87,0.00,,,-99.99,Weather View 32 v60,2013-07-06 13:05:00,
2013-07-06 06:19:00,56.1,52.3,29.79,NNW,343,0.0,0.0,87,0.00,,,-99.99,Weather View 32 v60,2013-07-06 13:19:00,
2013-07-06 06:29:00,56.7,52.5,29.79,NNW,336,0.0,0.0,86,0.00,,,-99.99,Weather View 32 v60,2013-07-06 13:29:00,
2013-07-06 06:39:00,57.0,52.5,29.79,NNW,336,0.0,0.0,85,0.00,,,-99.99,Weather View 32 v60,2013-07-06 13:39:00,
2013-07-06 06:49:00,57.6,52.7,29.79,NNW,336,0.0,0.0,84,0.00,,,-99.99,Weather View 32 v60,2013-07-06 13:49:00,
2013-07-06 06:59:00,58.1,52.6,29.79,NNW,336,0.0,0.0,82,0.00,,,-99.99,Weather View 32 v60,2013-07-06 13:59:00,
2013-07-06 07:05:00,58.1,52.6,29.79,NNW,336,0.0,0.0,82,0.00,,,-99.99,Weather View 32 v60,2013-07-06 14:05:00,
2013-07-06 07:19:00,58.8,52.3,29.81,NNW,338,0.0,0.0,79,0.00,,,-99.99,Weather View 32 v60,2013-07-06 14:19:00,
2013-07-06 07:29:00,59.4,51.8,29.81,ENE,63,0.0,0.0,76,0.00,,,-99.99,Weather View 32 v60,2013-07-06 14:29:00,
2013-07-06 07:39:00,60.1,51.4,29.81,NNE,19,0.0,0.0,73,0.00,,,-99.99,Weather View 32 v60,2013-07-06 14:39:00,
2013-07-06 07:49:00,60.3,51.2,29.81,North,0,0.0,0.0,72,0.00,,,-99.99,Weather View 32 v60,2013-07-06 14:49:00,
2013-07-06 07:59:00,61.0,50.7,29.81,East,81,0.0,0.0,69,0.00,,,-99.99,Weather View 32 v60,2013-07-06 14:59:00,
2013-07-06 08:06:00,61.0,50.7,29.81,East,81,0.0,0.0,69,0.00,,,-99.99,Weather View 32 v60,2013-07-06 15:06:00,
2013-07-06 08:19:00,62.2,50.7,29.81,ENE,61,0.0,0.0,66,0.00,,,-99.99,Weather View 32 v60,2013-07-06 15:19:00,
2013-07-06 08:29:00,63.0,50.6,29.81,NNE,30,0.0,0.0,64,0.00,,,-99.99,Weather View 32 v60,2013-07-06 15:29:00,
2013-07-06 08:39:00,63.5,50.2,29.81,NNE,26,0.0,0.0,62,0.00,,,-99.99,Weather View 32 v60,2013-07-06 15:39:00,
2013-07-06 08:49:00,63.9,50.6,29.81,WNW,288,0.0,0.0,62,0.00,,,-99.99,Weather View 32 v60,2013-07-06 15:49:00,
2013-07-06 08:59:00,65.3,51.0,29.81,SE,138,0.0,0.0,60,0.00,,,-99.99,Weather View 32 v60,2013-07-06 15:59:00,
2013-07-06 09:06:00,65.3,51.0,29.81,SE,138,0.0,0.0,60,0.00,,,-99.99,Weather View 32 v60,2013-07-06 16:06:00,
2013-07-06 09:19:00,66.4,50.2,29.81,ENE,76,0.0,0.0,56,0.00,,,-99.99,Weather View 32 v60,2013-07-06 16:19:00,
2013-07-06 09:39:00,68.0,49.1,29.81,ENE,58,0.0,0.0,51,0.00,,,-99.99,Weather View 32 v60,2013-07-06 16:39:00,
2013-07-06 09:49:00,69.1,49.1,29.81,NNE,32,0.0,0.0,49,0.00,,,-99.99,Weather View 32 v60,2013-07-06 16:49:00,
2013-07-06 09:59:00,70.0,48.2,29.81,East,82,0.0,0.0,46,0.00,,,-99.99,Weather View 32 v60,2013-07-06 16:59:00,
2013-07-06 10:07:00,70.0,48.2,29.81,East,82,0.0,0.0,46,0.00,,,-99.99,Weather View 32 v60,2013-07-06 17:07:00,
2013-07-06 10:19:00,71.4,47.7,29.81,NE,34,0.0,7.0,43,0.00,,,-99.99,Weather View 32 v60,2013-07-06 17:19:00,
2013-07-06 10:29:00,72.7,48.2,29.81,North,351,0.0,7.0,42,0.00,,,-99.99,Weather View 32 v60,2013-07-06 17:29:00,
2013-07-06 10:49:00,73.8,48.5,29.79,North,356,0.0,7.0,41,0.00,,,-99.99,Weather View 32 v60,2013-07-06 17:49:00,
2013-07-06 10:59:00,75.2,49.1,29.81,NNE,24,0.0,7.0,40,0.00,,,-99.99,Weather View 32 v60,2013-07-06 17:59:00,
2013-07-06 11:07:00,75.2,49.1,29.81,NNE,24,0.0,7.0,40,0.00,,,-99.99,Weather View 32 v60,2013-07-06 18:07:00,
2013-07-06 11:39:00,79.2,47.5,29.79,North,351,0.0,6.0,33,0.00,,,-99.99,Weather View 32 v60,2013-07-06 18:39:00,
2013-07-06 11:49:00,79.5,47.8,29.79,West,270,0.0,6.0,33,0.00,,,-99.99,Weather View 32 v60,2013-07-06 18:49:00,
2013-07-06 12:08:00,79.0,48.1,29.79,West,278,4.0,10.0,34,0.00,,,-99.99,Weather View 32 v60,2013-07-06 19:08:00,
2013-07-06 12:19:00,77.9,48.7,29.81,North,0,3.0,12.0,36,0.00,,,-99.99,Weather View 32 v60,2013-07-06 19:19:00,
2013-07-06 12:39:00,79.2,48.3,29.79,WSW,257,0.0,12.0,34,0.00,,,-99.99,Weather View 32 v60,2013-07-06 19:39:00,
2013-07-06 13:08:00,80.8,48.9,29.79,WSW,252,0.0,12.0,33,0.00,,,-99.99,Weather View 32 v60,2013-07-06 20:08:00,
2013-07-06 13:19:00,82.0,48.3,29.79,North,11,0.0,10.0,31,0.00,,,-99.99,Weather View 32 v60,2013-07-06 20:19:00,
2013-07-06 13:39:00,82.2,48.5,29.79,WSW,258,0.0,13.0,31,0.00,,,-99.99,Weather View 32 v60,2013-07-06 20:39:00,
2013-07-06 13:49:00,83.3,48.5,29.79,NNE,27,0.0,13.0,30,0.00,,,-99.99,Weather View 32 v60,2013-07-06 20:49:00,
2013-07-06 13:59:00,83.1,48.4,29.79,WNW,303,0.0,13.0,30,0.00,,,-99.99,Weather View 32 v60,2013-07-06 20:59:00,
2013-07-06 14:29:00,87.4,50.2,29.76,SW,226,0.0,13.0,28,0.00,,,-99.99,Weather View 32 v60,2013-07-06 21:29:00,
2013-07-06 14:39:00,88.2,50.8,29.76,WSW,243,4.0,12.0,28,0.00,,,-99.99,Weather View 32 v60,2013-07-06 21:39:00,
2013-07-06 14:59:00,86.9,49.8,29.76,West,262,6.0,11.0,28,0.00,,,-99.99,Weather View 32 v60,2013-07-06 21:59:00,
2013-07-06 15:10:00,86.4,49.3,29.76,WNW,286,8.0,10.0,28,0.00,,,-99.99,Weather View 32 v60,2013-07-06 22:10:00,
2013-07-06 15:49:00,84.9,49.0,29.76,NNW,342,5.0,13.0,29,0.00,,,-99.99,Weather View 32 v60,2013-07-06 22:49:00,
2013-07-06 15:59:00,83.1,48.4,29.76,WNW,292,0.0,13.0,30,0.00,,,-99.99,Weather View 32 v60,2013-07-06 22:59:00,
2013-07-06 16:09:00,82.8,48.1,29.73,NW,325,7.0,13.0,30,0.00,,,-99.99,Weather View 32 v60,2013-07-06 23:09:00,
2013-07-06 16:29:00,82.0,47.4,29.73,North,351,0.0,11.0,30,0.00,,,-99.99,Weather View 32 v60,2013-07-06 23:29:00,
2013-07-06 16:39:00,82.2,47.6,29.73,West,259,6.0,11.0,30,0.00,,,-99.99,Weather View 32 v60,2013-07-06 23:39:00,
2013-07-06 17:09:00,80.8,47.2,29.73,WNW,291,0.0,13.0,31,0.00,,,-99.99,Weather View 32 v60,2013-07-07 00:09:00,
2013-07-06 17:19:00,80.6,47.9,29.73,West,262,6.0,13.0,32,0.00,,,-99.99,Weather View 32 v60,2013-07-07 00:19:00,
2013-07-06 17:29:00,79.9,47.3,29.73,WSW,256,3.0,13.0,32,0.00,,,-99.99,Weather View 32 v60,2013-07-07 00:29:00,
2013-07-06 17:49:00,78.4,46.9,29.73,NNE,14,0.0,13.0,33,0.00,,,-99.99,Weather View 32 v60,2013-07-07 00:49:00,
2013-07-06 17:59:00,77.5,46.9,29.73,WSW,247,0.0,13.0,34,0.00,,,-99.99,Weather View 32 v60,2013-07-07 00:59:00,
2013-07-06 18:11:00,76.3,46.5,29.73,NW,305,4.0,13.0,35,0.00,,,-99.99,Weather View 32 v60,2013-07-07 01:11:00,
2013-07-06 18:19:00,75.9,47.0,29.73,West,263,5.0,11.0,36,0.00,,,-99.99,Weather View 32 v60,2013-07-07 01:19:00,
2013-07-06 18:39:00,74.8,47.5,29.73,WNW,292,5.0,11.0,38,0.00,,,-99.99,Weather View 32 v60,2013-07-07 01:39:00,
2013-07-06 18:59:00,73.0,47.9,29.73,NW,317,0.0,10.0,41,0.00,,,-99.99,Weather View 32 v60,2013-07-07 01:59:00,
2013-07-06 19:09:00,72.3,48.5,29.73,WSW,240,0.0,11.0,43,0.00,,,-99.99,Weather View 32 v60,2013-07-07 02:09:00,
2013-07-06 19:29:00,70.7,48.3,29.73,North,356,0.0,11.0,45,0.00,,,-99.99,Weather View 32 v60,2013-07-07 02:29:00,
2013-07-06 19:39:00,69.8,48.0,29.73,SW,230,0.0,11.0,46,0.00,,,-99.99,Weather View 32 v60,2013-07-07 02:39:00,
2013-07-06 19:49:00,69.3,48.1,29.73,West,272,0.0,11.0,47,0.00,,,-99.99,Weather View 32 v60,2013-07-07 02:49:00,
2013-07-06 19:59:00,69.3,48.1,29.73,WSW,253,4.0,11.0,47,0.00,,,-99.99,Weather View 32 v60,2013-07-07 02:59:00,
2013-07-06 20:13:00,68.4,47.9,29.76,North,351,0.0,8.0,48,0.00,,,-99.99,Weather View 32 v60,2013-07-07 03:13:00,
2013-07-06 20:29:00,65.7,48.5,29.76,North,351,0.0,8.0,54,0.00,,,-99.99,Weather View 32 v60,2013-07-07 03:29:00,
2013-07-06 20:39:00,64.6,48.5,29.76,West,273,0.0,8.0,56,0.00,,,-99.99,Weather View 32 v60,2013-07-07 03:39:00,
2013-07-06 21:09:00,63.3,49.6,29.76,NW,321,0.0,8.0,61,0.00,,,-99.99,Weather View 32 v60,2013-07-07 04:09:00,
2013-07-06 21:13:00,63.3,49.6,29.76,NW,321,0.0,8.0,61,0.00,,,-99.99,Weather View 32 v60,2013-07-07 04:13:00,
2013-07-06 21:19:00,63.0,49.7,29.76,North,351,0.0,7.0,62,0.00,,,-99.99,Weather View 32 v60,2013-07-07 04:19:00,
2013-07-06 21:29:00,62.6,49.4,29.76,West,266,0.0,6.0,62,0.00,,,-99.99,Weather View 32 v60,2013-07-07 04:29:00,
2013-07-06 21:39:00,62.1,49.3,29.79,North,351,0.0,6.0,63,0.00,,,-99.99,Weather View 32 v60,2013-07-07 04:39:00,
2013-07-06 21:49:00,61.5,49.2,29.79,NNW,347,0.0,0.0,64,0.00,,,-99.99,Weather View 32 v60,2013-07-07 04:49:00,
2013-07-06 21:59:00,61.2,49.7,29.79,NW,315,0.0,0.0,66,0.00,,,-99.99,Weather View 32 v60,2013-07-07 04:59:00,
2013-07-06 22:09:00,60.8,49.7,29.79,North,351,0.0,0.0,67,0.00,,,-99.99,Weather View 32 v60,2013-07-07 05:09:00,
2013-07-06 22:19:00,60.4,49.8,29.79,North,351,0.0,0.0,68,0.00,,,-99.99,Weather View 32 v60,2013-07-07 05:19:00,
2013-07-06 22:29:00,60.3,50.0,29.79,NNW,338,0.0,0.0,69,0.00,,,-99.99,Weather View 32 v60,2013-07-07 05:29:00,
2013-07-06 22:39:00,60.1,50.2,29.79,North,351,0.0,0.0,70,0.00,,,-99.99,Weather View 32 v60,2013-07-07 05:39:00,
2013-07-06 22:49:00,59.9,50.5,29.79,NNE,31,0.0,0.0,71,0.00,,,-99.99,Weather View 32 v60,2013-07-07 05:49:00,
2013-07-06 22:59:00,59.5,50.5,29.79,North,351,0.0,0.0,72,0.00,,,-99.99,Weather View 32 v60,2013-07-07 05:59:00,
2013-07-06 23:09:00,59.2,50.1,29.79,WNW,302,0.0,0.0,72,0.00,,,-99.99,Weather View 32 v60,2013-07-07 06:09:00,
2013-07-06 23:19:00,59.0,50.3,29.79,North,351,0.0,0.0,73,0.00,,,-99.99,Weather View 32 v60,2013-07-07 06:19:00,
2013-07-06 23:29:00,58.6,50.4,29.81,NNW,327,0.0,0.0,74,0.00,,,-99.99,Weather View 32 v60,2013-07-07 06:29:00,
2013-07-06 23:39:00,58.3,50.4,29.79,WSW,257,0.0,0.0,75,0.00,,,-99.99,Weather View 32 v60,2013-07-07 06:39:00,
2013-07-06 23:49:00,57.9,50.4,29.79,NW,315,0.0,0.0,76,0.00,,,-99.99,Weather View 32 v60,2013-07-07 06:49:00,
2013-07-06 23:59:00,57.7,50.9,29.81,SE,143,0.0,0.0,78,0.00,,,-99.99,Weather View 32 v60,2013-07-07 06:59:00,